Flag for United Kingdom Weather past 2 weeks in Birmingham, England, United Kingdom

Now
64 °F

Passing clouds.


Feels Like: 64 °F
Forecast: 57 / 72 °F
Wind: 13 mph from East

Location: Birmingham / Airport

Current Time: Jul 3, 2015 at 11:45:20 PM

Latest Report: Jul 3, 2015 at 10:50 PM


Visibility: N/A

Pressure: 30.09 "Hg

Humidity: 73%

Dew point: 55 °F

Location of BirminghamLocation

Historic Weather in Birmingham — Graph

°F

Birmingham temperature yesterday

Maximum temperature yesterday: 72 °F (at 12:20 AM)
Minimum temperature yesterday: 54 °F (at 11:20 PM)
Average temperature yesterday: 64 °F

Past Weeks' High & Low Weather Summary

 TemperatureHumidityPressure
High90 °F (Jul 1, 3:50 PM)100% (Jun 20, 7:20 AM)30.30 "Hg (Jun 20, 7:20 AM)
Low48 °F (Jul 3, 4:20 AM)35% (Jun 30, 2:50 PM)29.80 "Hg (Jun 22, 9:50 AM)
Average63 °F69%30.06 "Hg
* Reported Jun 18 10:20 PM — Jul 3 10:20 PM, Birmingham, Weather by CustomWeather, © 2015

Note: Actual official high and low records may vary slightly from our data, if they occured in-between our weather recording intervals... More about our weather records

Advertising

Birmingham weather history for previous 24 hours

 ConditionsComfort  
Time TempWeatherWind HumidityBarometerVisibility
10:20 PM
Fri, Jul 3
66 °FSunny.12 mph68%30.09 "Hg10 mi
9:50 PM66 °FSunny.10 mph68%30.09 "Hg10 mi
9:20 PM66 °FSunny.13 mph68%30.09 "Hg10 mi
8:50 PM68 °FSunny.13 mph60%30.12 "Hg10 mi
8:20 PM68 °FPassing clouds.13 mph60%30.12 "HgN/A
7:50 PM70 °FSunny.14 mph57%30.12 "Hg10 mi
7:20 PM72 °FSunny.16 mph53%30.12 "Hg10 mi
6:50 PM75 °FSunny.15 mph50%30.12 "Hg10 mi
6:20 PM77 °FSunny.13 mph42%30.12 "Hg10 mi
5:50 PM75 °FSunny.12 mph44%30.15 "Hg10 mi
5:20 PM75 °FSunny.14 mph44%30.15 "Hg10 mi
4:50 PM75 °FSunny.13 mph44%30.15 "Hg10 mi
4:20 PM77 °FPassing clouds.12 mph36%30.18 "HgN/A
3:50 PM75 °FSunny.14 mph39%30.18 "Hg10 mi
3:20 PM75 °FPassing clouds.13 mph41%30.21 "HgN/A
2:50 PM75 °FPassing clouds.10 mph41%30.21 "HgN/A
2:20 PM75 °FPassing clouds.9 mph41%30.21 "HgN/A
1:50 PM75 °FPassing clouds.9 mph41%30.24 "HgN/A
1:20 PM73 °FPassing clouds.10 mph47%30.24 "HgN/A
12:50 PM73 °FPassing clouds.9 mph47%30.24 "HgN/A
12:20 PM72 °FMild.7 mph53%30.27 "Hg6 mi
11:50 AM70 °FPassing clouds.7 mph57%30.27 "HgN/A
11:20 AM68 °FPassing clouds.7 mph60%30.27 "HgN/A
10:50 AM68 °FPassing clouds.7 mph60%30.27 "HgN/A
10:20 AM66 °FPassing clouds.8 mph68%30.30 "Hg6 mi
9:50 AM66 °FPassing clouds.8 mph68%30.30 "HgN/A
9:20 AM64 °FPassing clouds.7 mph78%30.30 "HgN/A
8:50 AM63 °FMild.6 mph83%30.30 "Hg5 mi
8:20 AM61 °FPassing clouds.5 mph83%30.30 "HgN/A
7:50 AM59 °FLight fog.5 mph88%30.30 "HgN/A
7:20 AM55 °FFog.3 mph100%30.30 "HgN/A
6:50 AM52 °FFog.3 mph100%30.30 "HgN/A
6:20 AM50 °FSnow. Light fog.2 mph100%30.30 "Hg6 mi
5:50 AM48 °FFog.3 mph100%30.30 "Hg0 mi
5:20 AM48 °FLight fog.5 mph100%30.27 "HgN/A
4:50 AM48 °FSleet. Light fog.3 mph100%30.27 "HgN/A
4:20 AM48 °FLight fog.3 mph100%30.27 "HgN/A
3:50 AM50 °FClear.3 mph100%30.27 "Hg10 mi
3:20 AM50 °FClear.2 mph100%30.27 "Hg10 mi
2:50 AM50 °FClear.3 mph100%30.27 "Hg10 mi
2:20 AM52 °FClear.2 mph100%30.24 "Hg10 mi
1:50 AM52 °FClear.3 mph100%30.24 "Hg10 mi
1:20 AM52 °FClear.5 mph100%30.24 "Hg10 mi
12:50 AM52 °FClear.5 mph100%30.24 "Hg10 mi
12:20 AM54 °FClear.3 mph94%30.24 "Hg10 mi
11:50 PM
Thu, Jul 2
54 °FClear.5 mph94%30.24 "Hg10 mi
11:20 PM54 °FClear.5 mph94%30.21 "Hg10 mi
Weather by CustomWeather, © 2015

See weather overviewHow to use our weather pages